QPF
0.00 0.00 0.01 0.01 0.01 0.01 0.02 0.03 0.03 0.06 0.05 0.07 0.09 0.06 0.05 0.08 0.08 0.14 0.16 0.22 0.25 0.27 0.20 0.20 0.16 0.06 0.03 0.03 0.06 0.05 0.05 0.03 0.02 0.01 0.01 0.01 0.00 0.00 0.00 0.00 0.01 0.03 0.06 0.08
0.00 0.00 0.00 0.00 0.00 0.00 0.00 0.02 0.03 0.03 0.04 0.07 0.09 0.06 0.05 0.04 0.05 0.11 0.13 0.16 0.23 0.30 0.31 0.28 0.23 0.21 0.13 0.12 0.11 0.12 0.08 0.10 0.07 0.03 0.01 0.00 0.00 0.00 0.01 0.00 0.00 0.01 0.03 0.05
0.00 0.00 0.00 0.00 0.00 0.01 0.02 0.02 0.02 0.02 0.04 0.04 0.03 0.04 0.06 0.05 0.05 0.07 0.11 0.10 0.14 0.22 0.28 0.28 0.29 0.26 0.28 0.21 0.19 0.19 0.16 0.09 0.08 0.07 0.03 0.01 0.01 0.01 0.01 0.02 0.03 0.02 0.02 0.02
0.00 0.00 0.00 0.00 0.00 0.00 0.01 0.02 0.02 0.02 0.02 0.02 0.04 0.04 0.05 0.05 0.04 0.05 0.07 0.08 0.10 0.14 0.18 0.23 0.21 0.22 0.18 0.18 0.15 0.14 0.13 0.12 0.08 0.04 0.03 0.03 0.02 0.03 0.04 0.03 0.04 0.05 0.06 0.06
0.00 0.00 0.00 0.00 0.00 0.00 0.00 0.00 0.01 0.01 0.01 0.00 0.01 0.01 0.02 0.04 0.05 0.05 0.07 0.07 0.07 0.10 0.11 0.12 0.14 0.12 0.10 0.05 0.03 0.03 0.03 0.04 0.04 0.04 0.02 0.02 0.02 0.03 0.03 0.04 0.04 0.04 0.05 0.06
0.00 0.00 0.00 0.00 0.00 0.00 0.00 0.00 0.00 0.01 0.01 0.01 0.00 0.01 0.02 0.04 0.06 0.06 0.06 0.07 0.05 0.05 0.06 0.06 0.05 0.04 0.02 0.01 0.00 0.00 0.00 0.01 0.01 0.01 0.01 0.02 0.02 0.03 0.04 0.03 0.02 0.02 0.03 0.04
0.00 0.00 0.00 0.00 0.00 0.00 0.00 0.00 0.00 0.00 0.01 0.02 0.02 0.03 0.04 0.04 0.05 0.06 0.07 0.06 0.05 0.04 0.03 0.03 0.02 0.01 0.00 0.00 0.00 0.00 0.00 0.00 0.01 0.01 0.01 0.01 0.01 0.01 0.02 0.03 0.03 0.04 0.05 0.06
0.00 0.00 0.00 0.00 0.00 0.00 0.00 0.00 0.00 0.00 0.01 0.02 0.03 0.04 0.04 0.04 0.04 0.04 0.05 0.05 0.05 0.04 0.03 0.03 0.02 0.01 0.01 0.01 0.01 0.01 0.00 0.00 0.01 0.01 0.01 0.01 0.01 0.01 0.01 0.00 0.02 0.04 0.05 0.07
0.00 0.00 0.00 0.00 0.00 0.00 0.00 0.00 0.00 0.00 0.00 0.01 0.02 0.03 0.04 0.04 0.04 0.04 0.04 0.04 0.04 0.04 0.03 0.03 0.02 0.01 0.00 0.01 0.01 0.01 0.01 0.01 0.01 0.02 0.02 0.02 0.01 0.01 0.01 0.01 0.01 0.02 0.04 0.05
0.00 0.00 0.00 0.00 0.00 0.00 0.00 0.00 0.00 0.00 0.00 0.00 0.00 0.01 0.02 0.03 0.03 0.03 0.03 0.03 0.03 0.03 0.02 0.02 0.02 0.01 0.01 0.01 0.01 0.01 0.01 0.01 0.02 0.02 0.02 0.02 0.02 0.02 0.02 0.02 0.02 0.02 0.02 0.02
0.00 0.00 0.00 0.00 0.00 0.00 0.00 0.00 0.00 0.00 0.00 0.00 0.00 0.00 0.00 0.01 0.01 0.00 0.00 0.01 0.01 0.01 0.01 0.01 0.01 0.02 0.02 0.02 0.02 0.02 0.01 0.01 0.01 0.02 0.02 0.01 0.01 0.01 0.01 0.01 0.00 0.00 0.00 0.00
0.00 0.00 0.00 0.00 0.00 0.00 0.00 0.00 0.00 0.00 0.00 0.00 0.00 0.00 0.00 0.00 0.00 0.00 0.00 0.00 0.00 0.00 0.00 0.00 0.00 0.00 0.01 0.02 0.02 0.01 0.02 0.02 0.02 0.01 0.01 0.01 0.01 0.00 0.00 0.00 0.00 0.00 0.00 0.00
0.00 0.00 0.00 0.00 0.00 0.00 0.00 0.00 0.00 0.00 0.00 0.00 0.00 0.00 0.00 0.00 0.00 0.00 0.00 0.00 0.00 0.00 0.00 0.00 0.00 0.00 0.00 0.00 0.00 0.00 0.00 0.00 0.00 0.00 0.00 0.00 0.00 0.00 0.00 0.00 0.00 0.00 0.00 0.00
0.00 0.00 0.00 0.00 0.00 0.00 0.00 0.00 0.00 0.00 0.00 0.00 0.00 0.00 0.00 0.00 0.00 0.00 0.00 0.00 0.00 0.00 0.00 0.00 0.00 0.00 0.00 0.00 0.00 0.00 0.00 0.00 0.00 0.00 0.00 0.00 0.00 0.00 0.00 0.00 0.00 0.00 0.00 0.00
0.00 0.00 0.00 0.00 0.00 0.00 0.00 0.00 0.00 0.00 0.00 0.00 0.00 0.00 0.00 0.00 0.00 0.00 0.00 0.00 0.00 0.00 0.00 0.00 0.00 0.00 0.00 0.00 0.00 0.00 0.00 0.00 0.00 0.00 0.00 0.00 0.00 0.00 0.00 0.00 0.00 0.00 0.00 0.00
0.00 0.00 0.00 0.00 0.00 0.00 0.00 0.00 0.00 0.00 0.00 0.00 0.00 0.00 0.00 0.00 0.00 0.00 0.00 0.00 0.00 0.00 0.00 0.00 0.00 0.00 0.00 0.00 0.00 0.00 0.00 0.00 0.00 0.00 0.00 0.00 0.00 0.00 0.00 0.00 0.00 0.00 0.00 0.00
0.00 0.00 0.00 0.00 0.00 0.00 0.00 0.00 0.00 0.00 0.00 0.00 0.00 0.00 0.00 0.00 0.00 0.00 0.00 0.00 0.00 0.00 0.00 0.00 0.00 0.00 0.00 0.00 0.00 0.00 0.00 0.00 0.00 0.00 0.00 0.00 0.00 0.00 0.00 0.00 0.00 0.00 0.00 0.00
0.00 0.00 0.00 0.00 0.00 0.00 0.00 0.00 0.00 0.00 0.00 0.00 0.00 0.00 0.00 0.00 0.00 0.00 0.00 0.00 0.00 0.00 0.00 0.00 0.00 0.00 0.00 0.00 0.00 0.00 0.00 0.00 0.00 0.00 0.00 0.00 0.00 0.00 0.00 0.00 0.00 0.00 0.00 0.00
0.00 0.00 0.00 0.00 0.00 0.00 0.00 0.00 0.00 0.00 0.00 0.00 0.00 0.00 0.00 0.00 0.00 0.00 0.00 0.00 0.00 0.00 0.00 0.00 0.00 0.00 0.00 0.00 0.00 0.00 0.00 0.00 0.00 0.00 0.00 0.00 0.00 0.00 0.00 0.00 0.00 0.00 0.00 0.00
0.00 0.00 0.00 0.00 0.00 0.00 0.00 0.00 0.00 0.00 0.00 0.00 0.00 0.00 0.00 0.00 0.00 0.00 0.00 0.00 0.00 0.00 0.00 0.00 0.00 0.00 0.00 0.00 0.00 0.00 0.00 0.00 0.00 0.00 0.00 0.00 0.00 0.00 0.00 0.00 0.00 0.00 0.00 0.00
0.00 0.00 0.00 0.00 0.00 0.00 0.00 0.00 0.00 0.00 0.01 0.01 0.00 0.00 0.00 0.00 0.00 0.00 0.00 0.00 0.00 0.00 0.00 0.00 0.00 0.00 0.00 0.00 0.00 0.00 0.00 0.00 0.00 0.00 0.00 0.00 0.00 0.00 0.00 0.00 0.00 0.00 0.00 0.00
0.00 0.00 0.00 0.00 0.00 0.00 0.00 0.00 0.01 0.01 0.01 0.01 0.01 0.00 0.00 0.00 0.00 0.00 0.00 0.00 0.00 0.00 0.00 0.00 0.00 0.00 0.00 0.00 0.00 0.00 0.00 0.00 0.00 0.00 0.01 0.01 0.02 0.01 0.00 0.00 0.01 0.00 0.00 0.00
0.00 0.00 0.00 0.00 0.00 0.00 0.00 0.00 0.00 0.00 0.01 0.01 0.01 0.00 0.00 0.00 0.00 0.00 0.00 0.00 0.00 0.00 0.00 0.00 0.00 0.00 0.00 0.00 0.00 0.00 0.00 0.00 0.00 0.00 0.00 0.01 0.01 0.02 0.01 0.00 0.01 0.02 0.02 0.01
0.00 0.00 0.00 0.00 0.00 0.00 0.00 0.00 0.00 0.00 0.00 0.01 0.01 0.00 0.00 0.00 0.00 0.00 0.00 0.00 0.00 0.00 0.00 0.00 0.00 0.01 0.01 0.02 0.00 0.00 0.00 0.00 0.00 0.00 0.00 0.01 0.02 0.01 0.02 0.01 0.01 0.01 0.01 0.01
0.00 0.00 0.00 0.00 0.00 0.00 0.00 0.00 0.00 0.00 0.00 0.00 0.00 0.00 0.00 0.00 0.00 0.00 0.00 0.00 0.00 0.00 0.00 0.00 0.00 0.01 0.02 0.01 0.01 0.01 0.00 0.00 0.00 0.01 0.00 0.01 0.01 0.00 0.01 0.01 0.00 0.01 0.00 0.00
0.00 0.00 0.00 0.00 0.00 0.00 0.00 0.01 0.01 0.01 0.01 0.00 0.00 0.00 0.00 0.00 0.00 0.00 0.00 0.00 0.00 0.00 0.00 0.00 0.00 0.00 0.00 0.00 0.00 0.00 0.00 0.01 0.02 0.02 0.01 0.01 0.02 0.02 0.01 0.01 0.01 0.01 0.01 0.00
0.00 0.00 0.00 0.00 0.00 0.01 0.01 0.01 0.01 0.01 0.01 0.00 0.00 0.00 0.00 0.00 0.00 0.00 0.00 0.00 0.00 0.00 0.00 0.00 0.00 0.00 0.00 0.00 0.00 0.00 0.01 0.02 0.03 0.02 0.02 0.01 0.02 0.02 0.01 0.02 0.02 0.02 0.02 0.01
MSLP
1025.26 1024.26 1023.45 1023.24 1022.79 1022.30 1021.80 1021.80 1021.81 1021.90 1021.60 1021.82 1020.90 1020.04 1019.20 1018.56 1018.37 1017.92 1017.45 1017.15 1017.25 1017.08 1016.67 1016.18 1016.79 1016.99 1016.87 1017.37 1017.92 1018.18 1018.94 1019.57 1020.44 1020.99 1021.64 1022.26 1023.09 1023.69 1024.29 1025.06 1025.97 1026.48 1027.16 1027.85
1026.41 1025.03 1024.03 1023.76 1023.74 1023.50 1023.37 1023.33 1023.13 1022.88 1022.59 1022.33 1021.53 1020.60 1019.96 1019.75 1019.13 1018.81 1018.57 1018.33 1018.42 1018.25 1017.25 1017.60 1017.34 1017.46 1017.81 1017.99 1018.10 1018.46 1019.43 1020.10 1020.99 1021.38 1021.83 1022.48 1023.23 1024.00 1024.67 1025.48 1026.05 1026.74 1027.33 1027.94
1028.17 1026.38 1025.20 1024.97 1024.83 1024.68 1024.65 1024.74 1024.58 1024.13 1023.89 1023.19 1022.29 1021.74 1021.42 1020.75 1020.03 1019.82 1019.53 1019.08 1019.14 1018.99 1018.95 1018.83 1018.45 1018.56 1018.77 1019.24 1018.39 1019.00 1019.52 1020.66 1021.57 1021.25 1022.47 1022.73 1023.29 1024.07 1024.83 1025.45 1026.04 1026.69 1027.57 1027.99
1030.49 1027.78 1027.31 1026.35 1025.56 1025.20 1024.98 1025.24 1025.29 1025.00 1024.38 1023.79 1023.32 1022.53 1021.88 1021.16 1020.61 1020.62 1020.22 1020.07 1019.98 1019.98 1019.71 1019.42 1019.24 1020.12 1018.82 1020.48 1018.80 1019.01 1020.53 1020.78 1021.35 1022.27 1022.63 1022.72 1023.39 1024.13 1025.01 1025.68 1026.21 1026.99 1027.65 1028.35
1032.59 1031.39 1028.96 1027.04 1026.37 1026.23 1025.97 1025.42 1025.44 1025.41 1024.90 1023.89 1022.82 1022.25 1022.13 1021.92 1021.49 1021.01 1020.92 1020.60 1020.73 1020.65 1020.49 1020.25 1020.07 1020.06 1020.93 1020.28 1020.03 1019.80 1020.06 1021.21 1021.87 1021.87 1022.73 1023.04 1023.76 1024.63 1025.18 1025.90 1026.49 1027.21 1027.82 1028.47
1033.25 1032.51 1030.17 1028.03 1026.94 1026.66 1026.69 1026.19 1025.56 1025.34 1025.18 1024.73 1023.54 1023.01 1023.15 1022.59 1022.06 1021.85 1021.69 1021.65 1021.40 1021.34 1021.05 1020.91 1020.96 1021.43 1021.32 1021.20 1021.07 1020.69 1021.11 1021.79 1022.44 1022.66 1023.33 1023.51 1023.95 1024.86 1025.45 1026.14 1026.76 1027.41 1028.10 1028.70
1033.80 1032.58 1030.14 1027.89 1027.21 1026.99 1027.11 1027.27 1026.12 1026.00 1025.60 1025.03 1024.39 1024.17 1023.64 1022.96 1022.72 1022.52 1022.13 1021.86 1021.67 1021.58 1021.74 1021.62 1021.63 1021.54 1021.56 1021.54 1021.65 1021.63 1021.69 1022.12 1022.99 1023.38 1023.88 1024.11 1024.43 1025.25 1025.84 1026.46 1027.14 1027.72 1028.36 1028.87
1033.21 1031.75 1029.52 1027.62 1027.73 1027.52 1027.10 1026.67 1026.48 1026.21 1025.93 1025.55 1024.99 1024.36 1023.80 1023.47 1023.09 1022.78 1022.39 1022.12 1022.11 1022.03 1021.73 1022.11 1022.06 1021.93 1022.09 1022.24 1022.18 1022.17 1022.49 1023.15 1023.82 1024.00 1024.28 1024.45 1025.13 1025.82 1026.11 1026.87 1027.38 1027.96 1028.56 1029.19
1031.76 1029.59 1028.02 1027.56 1027.45 1027.22 1027.25 1027.02 1026.63 1026.34 1025.76 1025.47 1025.02 1024.56 1024.25 1024.04 1023.72 1023.43 1023.00 1022.74 1022.64 1022.27 1022.35 1022.38 1022.35 1022.52 1022.78 1022.67 1022.72 1023.09 1023.32 1023.57 1024.10 1024.39 1024.79 1025.21 1025.55 1026.07 1026.74 1027.28 1027.67 1028.24 1028.86 1029.37
1030.70 1028.41 1028.03 1027.54 1027.41 1027.19 1027.06 1026.96 1026.44 1026.12 1025.81 1025.60 1025.28 1024.86 1024.48 1024.26 1024.08 1023.96 1023.71 1023.53 1023.39 1022.98 1023.35 1023.49 1023.31 1023.31 1023.28 1023.23 1023.69 1023.97 1024.22 1024.50 1024.66 1024.69 1025.18 1025.72 1026.22 1026.60 1026.96 1027.64 1027.89 1028.48 1028.92 1029.51
1029.52 1027.84 1027.65 1027.13 1027.10 1026.76 1026.72 1026.71 1026.48 1026.22 1026.02 1025.87 1025.75 1025.43 1025.17 1024.93 1024.65 1024.43 1024.28 1024.11 1023.85 1023.84 1023.99 1023.77 1023.50 1023.83 1023.69 1023.89 1023.99 1024.49 1024.74 1024.87 1025.03 1025.10 1025.40 1026.00 1026.79 1027.14 1027.40 1027.88 1028.22 1028.54 1029.01 1029.54
1027.68 1026.67 1026.81 1026.85 1026.28 1026.35 1026.65 1026.52 1026.39 1026.45 1026.26 1025.95 1025.95 1025.97 1025.78 1025.48 1025.20 1025.04 1024.91 1024.76 1024.57 1024.47 1024.45 1024.38 1024.36 1024.22 1023.98 1023.93 1024.14 1024.46 1024.62 1024.79 1025.11 1025.48 1025.92 1026.30 1027.11 1027.74 1027.75 1028.23 1028.43 1028.75 1029.01 1029.52
1026.40 1026.43 1026.45 1026.16 1026.29 1026.12 1026.24 1026.28 1026.34 1026.40 1026.26 1026.46 1026.08 1026.04 1026.09 1025.98 1025.59 1025.29 1025.33 1025.19 1025.04 1024.85 1024.70 1024.60 1024.46 1024.32 1024.24 1024.64 1024.57 1024.54 1024.70 1024.91 1025.16 1025.59 1026.18 1026.67 1027.26 1027.87 1028.04 1028.19 1028.29 1028.59 1028.86 1029.49
1025.79 1026.44 1026.49 1026.17 1025.86 1025.64 1025.70 1025.77 1025.89 1026.03 1026.16 1026.19 1026.24 1026.24 1026.15 1026.03 1025.70 1025.64 1025.67 1025.69 1025.51 1025.45 1025.36 1025.18 1024.87 1024.55 1024.34 1024.16 1024.16 1024.07 1024.51 1024.69 1025.18 1025.67 1026.23 1026.65 1027.01 1027.21 1027.45 1027.66 1028.22 1028.67 1028.95 1029.26
1025.13 1025.35 1025.21 1025.48 1025.51 1025.65 1025.64 1025.68 1025.87 1025.87 1025.88 1025.93 1025.96 1026.07 1026.14 1026.14 1026.14 1026.07 1025.93 1025.95 1025.76 1025.56 1025.26 1024.97 1024.55 1024.36 1024.30 1024.09 1024.22 1024.41 1024.51 1024.55 1025.03 1025.56 1026.01 1026.38 1026.64 1027.07 1027.30 1027.51 1028.28 1028.77 1029.02 1028.95
1024.55 1024.87 1025.29 1025.46 1025.31 1025.41 1025.54 1025.48 1025.43 1025.25 1025.37 1025.35 1025.41 1025.41 1025.50 1025.74 1025.92 1025.81 1025.64 1025.60 1025.69 1025.49 1025.28 1025.09 1024.74 1024.41 1024.27 1024.30 1024.38 1024.54 1024.65 1024.66 1024.99 1025.44 1025.79 1026.09 1026.68 1026.99 1027.34 1027.82 1028.22 1028.58 1028.61 1028.48
1024.64 1024.78 1025.03 1025.18 1025.09 1024.87 1024.82 1024.79 1024.78 1024.72 1024.72 1024.82 1024.86 1024.94 1025.09 1025.23 1025.33 1025.44 1025.43 1025.48 1025.48 1025.41 1025.42 1025.18 1024.66 1024.57 1024.49 1024.36 1024.35 1024.49 1024.78 1024.92 1024.68 1025.31 1025.55 1025.61 1026.18 1026.69 1027.05 1027.37 1027.87 1027.92 1027.94 1028.13
1023.91 1024.09 1024.28 1024.56 1024.60 1024.59 1024.40 1024.29 1024.43 1024.48 1024.69 1024.55 1024.42 1024.70 1024.99 1025.18 1025.24 1025.03 1024.88 1025.12 1025.19 1025.13 1024.91 1024.52 1024.22 1024.24 1024.27 1024.27 1024.33 1024.37 1024.47 1024.54 1024.61 1024.48 1024.99 1025.31 1025.48 1025.95 1026.57 1026.84 1026.90 1027.12 1027.56 1027.82
1023.83 1023.99 1024.11 1024.32 1024.37 1024.44 1024.33 1024.17 1024.11 1024.08 1024.28 1024.51 1024.85 1024.80 1024.91 1025.03 1025.06 1025.13 1025.14 1025.17 1025.05 1024.63 1023.86 1023.79 1023.82 1023.69 1023.75 1023.78 1023.96 1024.10 1024.20 1024.27 1024.33 1024.43 1024.47 1024.76 1024.99 1025.25 1025.63 1025.92 1026.22 1026.50 1026.91 1027.27
1023.86 1024.04 1024.11 1024.16 1024.16 1024.22 1024.11 1024.07 1024.09 1024.17 1024.19 1024.52 1024.69 1024.84 1024.87 1024.90 1024.93 1025.10 1025.15 1024.99 1024.53 1024.15 1023.65 1023.50 1023.47 1023.39 1023.32 1023.33 1023.27 1023.34 1023.63 1023.79 1023.86 1023.94 1024.06 1024.12 1024.18 1024.39 1024.76 1025.15 1025.68 1026.07 1026.39 1026.62
1024.13 1024.18 1024.35 1024.35 1024.21 1024.15 1024.07 1023.81 1024.09 1023.92 1023.91 1024.28 1024.48 1024.51 1024.60 1024.66 1024.83 1024.98 1025.23 1024.69 1023.50 1023.32 1023.13 1023.02 1022.87 1022.75 1022.68 1022.63 1022.62 1022.62 1022.82 1023.00 1023.16 1023.24 1023.32 1023.28 1023.49 1023.68 1023.98 1024.35 1024.68 1025.22 1025.60 1025.95
1024.27 1024.55 1024.57 1024.49 1024.41 1024.24 1023.87 1023.63 1023.64 1023.66 1023.74 1023.83 1023.94 1024.13 1024.32 1024.27 1024.37 1024.55 1024.36 1024.05 1022.95 1022.78 1022.50 1022.32 1022.19 1022.07 1021.95 1021.92 1021.93 1022.13 1022.19 1022.25 1022.33 1022.47 1022.60 1022.72 1022.76 1022.86 1023.08 1023.49 1023.83 1024.14 1024.55 1024.88
1024.47 1024.65 1024.71 1024.73 1024.61 1024.45 1023.90 1023.58 1023.44 1023.43 1023.35 1023.31 1023.36 1023.43 1023.61 1023.53 1023.70 1024.06 1023.66 1022.95 1022.62 1022.27 1021.83 1021.61 1021.40 1021.11 1020.86 1020.75 1020.99 1021.27 1021.44 1021.53 1021.57 1021.60 1021.69 1021.81 1021.95 1022.00 1022.22 1022.52 1022.79 1023.15 1023.53 1023.88
1024.35 1024.58 1024.75 1024.73 1024.45 1024.28 1023.84 1023.22 1022.89 1022.83 1022.79 1022.75 1022.71 1022.73 1022.86 1022.92 1022.86 1022.77 1022.61 1022.25 1021.77 1021.53 1021.32 1020.97 1020.62 1020.20 1019.83 1019.86 1020.00 1020.19 1020.40 1020.56 1020.74 1020.86 1020.98 1021.04 1021.28 1021.43 1021.50 1021.68 1021.93 1022.34 1022.71 1023.06
1024.12 1024.29 1024.35 1024.34 1024.04 1023.50 1022.99 1022.54 1022.41 1022.31 1022.24 1022.14 1022.04 1021.98 1021.98 1022.12 1022.32 1022.00 1021.96 1021.76 1021.35 1020.96 1020.82 1020.60 1020.13 1019.82 1019.87 1019.82 1019.71 1019.60 1019.62 1019.73 1019.89 1020.10 1020.25 1020.40 1020.46 1020.67 1020.87 1021.10 1021.37 1021.62 1022.00 1022.28
1023.55 1023.64 1023.56 1023.25 1022.87 1022.43 1022.09 1021.90 1021.80 1021.66 1021.63 1021.55 1021.45 1021.41 1021.38 1021.41 1021.51 1021.33 1021.27 1021.08 1020.87 1020.63 1020.53 1020.38 1020.19 1019.94 1019.77 1019.63 1019.47 1019.34 1019.21 1019.21 1019.22 1019.26 1019.62 1019.78 1019.89 1020.03 1020.25 1020.52 1020.80 1021.03 1021.22 1021.61
1022.89 1022.47 1022.56 1022.31 1021.91 1021.64 1021.43 1021.28 1021.22 1021.17 1021.13 1021.16 1021.10 1020.98 1021.00 1021.06 1021.14 1020.96 1020.92 1020.97 1020.81 1020.62 1020.47 1020.33 1020.17 1019.96 1019.72 1019.57 1019.50 1019.30 1019.04 1018.98 1019.02 1019.08 1019.08 1019.33 1019.51 1019.64 1019.84 1020.07 1020.31 1020.57 1020.74 1020.99
Thickness
5289 5302 5304 5302 5299 5305 5306 5309 5314 5316 5321 5319 5337 5355 5366 5376 5387 5396 5406 5415 5422 5433 5446 5458 5461 5466 5475 5479 5483 5489 5490 5492 5491 5492 5492 5493 5493 5495 5495 5495 5492 5492 5490 5490
5273 5299 5309 5303 5299 5304 5300 5297 5304 5308 5312 5314 5327 5344 5355 5361 5372 5380 5389 5398 5405 5415 5427 5438 5446 5453 5457 5463 5471 5475 5475 5477 5476 5479 5480 5480 5480 5479 5480 5479 5479 5478 5478 5476
5273 5287 5295 5292 5282 5288 5293 5287 5290 5300 5302 5307 5320 5332 5339 5349 5360 5368 5374 5385 5393 5401 5408 5416 5429 5434 5440 5444 5457 5459 5462 5459 5459 5467 5462 5466 5467 5466 5465 5466 5466 5465 5461 5462
5256 5281 5264 5288 5291 5293 5291 5289 5284 5290 5296 5302 5308 5319 5330 5342 5351 5354 5363 5371 5378 5386 5394 5403 5413 5414 5431 5424 5441 5447 5441 5445 5445 5445 5447 5451 5451 5450 5449 5449 5450 5448 5447 5445
5248 5213 5271 5275 5280 5277 5281 5297 5287 5285 5288 5297 5310 5323 5327 5329 5338 5348 5353 5361 5363 5371 5378 5387 5396 5403 5403 5414 5420 5428 5432 5427 5427 5434 5433 5435 5436 5433 5433 5433 5433 5431 5431 5429
5216 5228 5253 5274 5271 5280 5277 5289 5288 5289 5288 5290 5306 5319 5316 5320 5330 5334 5341 5345 5353 5358 5366 5374 5379 5380 5385 5391 5398 5407 5411 5411 5412 5416 5416 5420 5423 5420 5419 5418 5417 5416 5414 5413
5226 5200 5253 5267 5267 5278 5278 5286 5283 5283 5283 5284 5298 5302 5307 5314 5318 5323 5329 5335 5342 5349 5353 5360 5364 5369 5374 5380 5384 5389 5395 5397 5395 5397 5398 5402 5404 5403 5403 5403 5401 5399 5398 5397
5204 5210 5267 5269 5280 5276 5276 5262 5271 5274 5276 5281 5286 5295 5302 5306 5311 5317 5323 5328 5331 5337 5345 5347 5351 5356 5359 5364 5370 5376 5378 5378 5377 5381 5382 5386 5386 5385 5387 5385 5385 5384 5383 5381
5256 5276 5275 5265 5276 5262 5252 5256 5262 5269 5280 5283 5287 5292 5295 5297 5300 5305 5313 5318 5322 5328 5331 5335 5340 5342 5345 5352 5357 5358 5362 5365 5365 5368 5368 5369 5370 5370 5368 5368 5369 5369 5368 5367
5269 5278 5270 5265 5260 5258 5261 5262 5267 5270 5272 5278 5280 5285 5291 5293 5294 5296 5300 5304 5308 5315 5315 5318 5323 5326 5329 5335 5337 5340 5344 5346 5349 5352 5352 5352 5352 5354 5355 5353 5355 5353 5353 5352
5265 5277 5267 5266 5259 5261 5261 5258 5263 5263 5265 5265 5267 5275 5278 5280 5285 5289 5292 5294 5300 5303 5303 5308 5314 5314 5318 5321 5324 5324 5326 5330 5333 5337 5339 5338 5335 5336 5338 5338 5337 5337 5336 5334
5291 5288 5278 5274 5265 5267 5253 5259 5259 5252 5251 5259 5260 5259 5264 5269 5274 5277 5278 5284 5288 5293 5294 5297 5299 5303 5308 5312 5314 5315 5318 5320 5321 5322 5323 5324 5320 5317 5320 5319 5320 5321 5322 5321
5290 5271 5269 5265 5257 5261 5253 5254 5249 5244 5247 5241 5249 5246 5246 5250 5257 5266 5269 5273 5276 5280 5283 5285 5289 5294 5296 5295 5299 5303 5306 5306 5309 5308 5308 5308 5306 5304 5305 5306 5308 5310 5312 5309
5274 5263 5273 5260 5268 5256 5252 5246 5249 5243 5241 5238 5231 5235 5236 5240 5249 5254 5255 5256 5259 5263 5267 5269 5276 5282 5287 5291 5295 5299 5298 5301 5299 5299 5297 5298 5298 5300 5301 5303 5300 5298 5298 5299
5282 5271 5269 5257 5256 5249 5246 5242 5238 5238 5236 5235 5234 5231 5229 5230 5233 5236 5238 5242 5248 5252 5258 5262 5267 5274 5277 5283 5285 5286 5288 5291 5290 5289 5289 5289 5291 5290 5292 5293 5288 5285 5285 5288
5286 5272 5261 5252 5251 5246 5237 5233 5228 5230 5229 5227 5228 5229 5227 5223 5222 5225 5228 5231 5235 5243 5246 5248 5254 5261 5265 5268 5271 5273 5274 5278 5279 5278 5279 5280 5277 5278 5278 5277 5276 5275 5277 5280
5272 5264 5250 5245 5245 5237 5232 5226 5225 5221 5217 5217 5219 5218 5217 5219 5219 5218 5220 5220 5221 5225 5228 5233 5241 5247 5252 5255 5258 5260 5260 5262 5269 5266 5268 5270 5268 5266 5267 5268 5266 5268 5270 5270
5265 5253 5243 5238 5229 5222 5222 5217 5212 5209 5205 5205 5204 5204 5204 5204 5210 5214 5215 5211 5212 5215 5220 5225 5230 5233 5238 5242 5244 5247 5249 5251 5254 5260 5257 5258 5260 5258 5256 5257 5261 5261 5258 5257
5252 5246 5237 5227 5218 5211 5209 5208 5203 5198 5190 5185 5183 5185 5186 5187 5190 5193 5195 5198 5202 5208 5217 5218 5223 5226 5226 5229 5232 5232 5236 5238 5241 5244 5246 5246 5248 5249 5249 5250 5250 5250 5247 5246
5246 5236 5228 5219 5213 5205 5201 5192 5182 5177 5174 5167 5166 5167 5169 5171 5171 5173 5177 5184 5190 5196 5202 5206 5210 5213 5216 5218 5224 5224 5223 5225 5227 5229 5233 5234 5238 5241 5239 5238 5236 5235 5235 5235
5232 5222 5214 5207 5198 5190 5183 5172 5165 5163 5164 5157 5157 5159 5160 5158 5158 5155 5160 5170 5180 5187 5191 5196 5200 5203 5206 5211 5214 5217 5218 5218 5218 5219 5220 5225 5225 5227 5227 5225 5226 5224 5222 5221
5211 5201 5194 5187 5178 5174 5168 5164 5159 5155 5151 5149 5146 5144 5143 5146 5148 5145 5150 5158 5168 5175 5180 5184 5188 5192 5196 5201 5203 5204 5207 5209 5211 5212 5213 5213 5215 5216 5217 5215 5214 5214 5213 5212
5194 5185 5178 5171 5165 5158 5151 5150 5148 5144 5143 5142 5140 5139 5137 5140 5139 5136 5144 5150 5154 5160 5168 5172 5178 5185 5190 5194 5195 5195 5197 5200 5202 5204 5206 5207 5207 5210 5210 5209 5208 5208 5207 5206
5179 5171 5163 5156 5149 5147 5142 5142 5140 5138 5136 5136 5135 5133 5132 5133 5135 5136 5138 5143 5149 5153 5155 5161 5167 5175 5182 5186 5187 5189 5190 5192 5193 5195 5196 5198 5199 5199 5202 5203 5203 5200 5199 5199
5169 5162 5155 5149 5145 5142 5138 5139 5135 5133 5132 5131 5132 5131 5131 5130 5130 5133 5134 5136 5141 5145 5146 5150 5157 5162 5165 5169 5174 5179 5182 5184 5185 5186 5187 5188 5190 5190 5191 5192 5191 5191 5190 5189
5161 5155 5150 5146 5144 5141 5137 5133 5131 5130 5129 5128 5128 5128 5127 5127 5127 5130 5130 5133 5134 5136 5137 5139 5143 5148 5152 5156 5161 5166 5170 5174 5177 5180 5178 5179 5180 5181 5180 5180 5180 5180 5181 5179
5158 5159 5147 5143 5138 5135 5131 5128 5125 5125 5124 5122 5121 5122 5121 5120 5120 5121 5121 5120 5121 5123 5125 5128 5131 5136 5141 5144 5148 5152 5157 5162 5165 5167 5169 5168 5168 5168 5168 5168 5168 5168 5168 5167